Time,TemperatureF,DewpointF,PressureIn,WindDirection,WindDirectionDegrees,WindSpeedMPH,WindSpeedGustMPH,Humidity,HourlyPrecipIn,Conditions,Clouds,dailyrainin,SoftwareType,DateUTC
2013-05-16 00:01:00,51.0,48.2,29.64,SE,136,0.0,1.0,90,0.00,,,0.08,VWS V14.01,2013-05-16 04:01:00,
2013-05-16 00:06:00,50.3,47.5,29.64,North,355,0.0,0.0,90,0.00,,,0.00,VWS V14.01,2013-05-16 04:06:00,
2013-05-16 00:11:00,49.9,47.4,29.64,North,355,0.0,0.0,91,0.00,,,0.00,VWS V14.01,2013-05-16 04:11:00,
2013-05-16 00:16:00,49.5,47.0,29.64,SE,142,2.0,2.0,91,0.00,,,0.00,VWS V14.01,2013-05-16 04:16:00,
2013-05-16 00:21:00,49.3,47.1,29.65,ESE,113,0.0,2.0,92,0.00,,,0.00,VWS V14.01,2013-05-16 04:21:00,
2013-05-16 00:26:00,49.2,47.0,29.64,ESE,113,0.0,0.0,92,0.00,,,0.00,VWS V14.01,2013-05-16 04:26:00,
2013-05-16 00:31:00,49.1,46.9,29.64,ESE,113,0.0,0.0,92,0.00,,,0.00,VWS V14.01,2013-05-16 04:31:00,
2013-05-16 00:36:00,49.1,46.9,29.64,ESE,113,0.0,0.0,92,0.00,,,0.00,VWS V14.01,2013-05-16 04:36:00,
2013-05-16 00:41:00,49.1,47.2,29.64,ESE,113,0.0,0.0,93,0.00,,,0.00,VWS V14.01,2013-05-16 04:41:00,
2013-05-16 00:46:00,49.1,47.2,29.64,ESE,113,0.0,0.0,93,0.00,,,0.00,VWS V14.01,2013-05-16 04:46:00,
2013-05-16 00:51:00,49.1,47.2,29.64,NE,38,0.0,2.0,93,0.00,,,0.00,VWS V14.01,2013-05-16 04:51:00,
2013-05-16 00:56:00,49.2,47.3,29.65,NE,38,0.0,0.0,93,0.00,,,0.00,VWS V14.01,2013-05-16 04:56:00,
2013-05-16 01:01:00,49.2,47.3,29.64,NE,38,0.0,0.0,93,0.00,,,0.00,VWS V14.01,2013-05-16 05:01:00,
2013-05-16 01:06:00,49.2,47.3,29.64,NE,38,0.0,0.0,93,0.00,,,0.00,VWS V14.01,2013-05-16 05:06:00,
2013-05-16 01:11:00,49.2,47.3,29.64,NE,38,0.0,0.0,93,0.00,,,0.00,VWS V14.01,2013-05-16 05:11:00,
2013-05-16 01:16:00,49.2,47.3,29.64,NE,38,0.0,0.0,93,0.00,,,0.00,VWS V14.01,2013-05-16 05:16:00,
2013-05-16 01:21:00,49.2,47.3,29.64,NE,38,0.0,0.0,93,0.00,,,0.00,VWS V14.01,2013-05-16 05:21:00,
2013-05-16 01:26:00,49.4,47.5,29.64,NE,38,0.0,0.0,93,0.00,,,0.00,VWS V14.01,2013-05-16 05:26:00,
2013-05-16 01:31:00,49.5,47.8,29.64,NE,38,0.0,0.0,94,0.00,,,0.00,VWS V14.01,2013-05-16 05:31:00,
2013-05-16 01:36:00,49.6,47.7,29.64,NE,38,0.0,1.0,93,0.00,,,0.00,VWS V14.01,2013-05-16 05:36:00,
2013-05-16 01:41:00,49.4,47.5,29.64,NE,38,0.0,1.0,93,0.00,,,0.00,VWS V14.01,2013-05-16 05:41:00,
2013-05-16 01:46:00,49.4,47.5,29.64,NE,38,0.0,0.0,93,0.00,,,0.00,VWS V14.01,2013-05-16 05:46:00,
2013-05-16 01:51:00,49.3,47.4,29.64,NE,38,0.0,0.0,93,0.00,,,0.00,VWS V14.01,2013-05-16 05:51:00,
2013-05-16 01:56:00,49.2,47.3,29.64,NE,38,0.0,0.0,93,0.00,,,0.00,VWS V14.01,2013-05-16 05:56:00,
2013-05-16 02:01:00,49.2,47.3,29.64,NE,38,0.0,1.0,93,0.00,,,0.00,VWS V14.01,2013-05-16 06:01:00,
2013-05-16 02:06:00,49.2,47.3,29.64,NE,38,0.0,0.0,93,0.00,,,0.00,VWS V14.01,2013-05-16 06:06:00,
2013-05-16 02:11:00,49.1,47.2,29.64,NE,38,0.0,1.0,93,0.00,,,0.00,VWS V14.01,2013-05-16 06:11:00,
2013-05-16 02:16:00,49.2,47.5,29.64,NE,38,0.0,0.0,94,0.00,,,0.00,VWS V14.01,2013-05-16 06:16:00,
2013-05-16 02:21:00,49.4,47.8,29.64,SSE,150,0.0,4.0,94,0.00,,,0.00,VWS V14.01,2013-05-16 06:21:00,
2013-05-16 02:26:00,49.4,47.5,29.64,SSE,150,0.0,0.0,93,0.00,,,0.00,VWS V14.01,2013-05-16 06:26:00,
2013-05-16 02:31:00,49.5,47.8,29.64,SSE,150,0.0,0.0,94,0.00,,,0.00,VWS V14.01,2013-05-16 06:31:00,
2013-05-16 02:36:00,49.8,47.9,29.64,SW,224,0.0,0.0,93,0.00,,,0.00,VWS V14.01,2013-05-16 06:36:00,
2013-05-16 02:41:00,50.0,48.1,29.64,SW,224,0.0,0.0,93,0.00,,,0.00,VWS V14.01,2013-05-16 06:41:00,
2013-05-16 02:46:00,50.1,47.9,29.64,SE,140,0.0,1.0,92,0.00,,,0.00,VWS V14.01,2013-05-16 06:46:00,
2013-05-16 02:51:00,50.1,47.6,29.64,SE,140,0.0,1.0,91,0.00,,,0.00,VWS V14.01,2013-05-16 06:51:00,
2013-05-16 02:56:00,50.0,47.5,29.64,SE,140,0.0,0.0,91,0.00,,,0.00,VWS V14.01,2013-05-16 06:56:00,
2013-05-16 03:01:00,49.9,47.4,29.64,SE,140,0.0,1.0,91,0.00,,,0.00,VWS V14.01,2013-05-16 07:01:00,
2013-05-16 03:06:00,49.7,46.9,29.64,SE,140,0.0,0.0,90,0.00,,,0.00,VWS V14.01,2013-05-16 07:06:00,
2013-05-16 03:11:00,49.6,46.8,29.64,SE,140,0.0,1.0,90,0.00,,,0.00,VWS V14.01,2013-05-16 07:11:00,
2013-05-16 03:16:00,49.5,46.7,29.63,SE,140,0.0,0.0,90,0.00,,,0.00,VWS V14.01,2013-05-16 07:16:00,
2013-05-16 03:21:00,49.4,46.6,29.63,SE,140,2.0,4.0,90,0.00,,,0.00,VWS V14.01,2013-05-16 07:21:00,
2013-05-16 03:26:00,49.3,46.5,29.63,SE,140,0.0,0.0,90,0.00,,,0.00,VWS V14.01,2013-05-16 07:26:00,
2013-05-16 03:31:00,49.1,46.3,29.63,SE,140,0.0,1.0,90,0.00,,,0.00,VWS V14.01,2013-05-16 07:31:00,
2013-05-16 03:36:00,48.9,46.1,29.63,SE,140,0.0,0.0,90,0.00,,,0.00,VWS V14.01,2013-05-16 07:36:00,
2013-05-16 03:41:00,48.7,45.9,29.63,SE,140,0.0,0.0,90,0.00,,,0.00,VWS V14.01,2013-05-16 07:41:00,
2013-05-16 03:46:00,48.7,46.2,29.63,SE,140,0.0,1.0,91,0.00,,,0.00,VWS V14.01,2013-05-16 07:46:00,
2013-05-16 03:51:00,48.6,45.8,29.63,SE,146,0.0,2.0,90,0.00,,,0.00,VWS V14.01,2013-05-16 07:51:00,
2013-05-16 03:56:00,48.6,45.8,29.63,SE,146,0.0,0.0,90,0.00,,,0.00,VWS V14.01,2013-05-16 07:56:00,
2013-05-16 04:01:00,48.7,45.9,29.63,SSE,163,0.0,2.0,90,0.00,,,0.00,VWS V14.01,2013-05-16 08:01:00,
2013-05-16 04:06:00,48.7,45.6,29.63,SSE,163,0.0,0.0,89,0.00,,,0.00,VWS V14.01,2013-05-16 08:06:00,
2013-05-16 04:11:00,48.5,45.4,29.63,SE,126,0.0,1.0,89,0.00,,,0.00,VWS V14.01,2013-05-16 08:11:00,
2013-05-16 04:16:00,48.6,45.2,29.63,SE,126,0.0,0.0,88,0.00,,,0.00,VWS V14.01,2013-05-16 08:16:00,
2013-05-16 04:21:00,48.7,45.3,29.62,SE,126,0.0,1.0,88,0.00,,,0.00,VWS V14.01,2013-05-16 08:21:00,
2013-05-16 04:26:00,48.8,45.1,29.62,SE,126,0.0,0.0,87,0.00,,,0.00,VWS V14.01,2013-05-16 08:26:00,
2013-05-16 04:31:00,48.8,44.8,29.62,SW,234,0.0,3.0,86,0.00,,,0.00,VWS V14.01,2013-05-16 08:31:00,
2013-05-16 04:36:00,49.2,44.9,29.62,SSW,206,0.0,1.0,85,0.00,,,0.00,VWS V14.01,2013-05-16 08:36:00,
2013-05-16 04:41:00,49.4,44.8,29.62,SSW,192,0.0,3.0,84,0.00,,,0.00,VWS V14.01,2013-05-16 08:41:00,
2013-05-16 04:46:00,49.8,44.5,29.62,SW,227,0.0,3.0,82,0.00,,,0.00,VWS V14.01,2013-05-16 08:46:00,
2013-05-16 04:51:00,50.1,44.5,29.62,SW,217,0.0,3.0,81,0.00,,,0.00,VWS V14.01,2013-05-16 08:51:00,
2013-05-16 04:56:00,50.3,44.0,29.62,SSW,192,0.0,4.0,79,0.00,,,0.00,VWS V14.01,2013-05-16 08:56:00,
2013-05-16 05:01:00,50.9,44.3,29.62,South,191,0.0,4.0,78,0.00,,,0.00,VWS V14.01,2013-05-16 09:01:00,
2013-05-16 05:06:00,50.6,44.0,29.62,South,171,0.0,4.0,78,0.00,,,0.00,VWS V14.01,2013-05-16 09:06:00,
2013-05-16 05:11:00,50.5,43.9,29.62,SW,236,0.0,5.0,78,0.00,,,0.00,VWS V14.01,2013-05-16 09:11:00,
2013-05-16 05:16:00,50.4,43.8,29.62,SSW,198,0.0,0.0,78,0.00,,,0.00,VWS V14.01,2013-05-16 09:16:00,
2013-05-16 05:21:00,50.1,43.5,29.63,SSW,198,0.0,0.0,78,0.00,,,0.00,VWS V14.01,2013-05-16 09:21:00,
2013-05-16 05:26:00,49.6,43.4,29.63,SSW,198,0.0,0.0,79,0.00,,,0.00,VWS V14.01,2013-05-16 09:26:00,
2013-05-16 05:31:00,49.2,43.0,29.63,South,177,0.0,1.0,79,0.00,,,0.00,VWS V14.01,2013-05-16 09:31:00,
2013-05-16 05:36:00,49.2,43.0,29.63,SSE,150,0.0,0.0,79,0.00,,,0.00,VWS V14.01,2013-05-16 09:36:00,
2013-05-16 05:41:00,49.0,42.8,29.63,SSE,149,0.0,2.0,79,0.00,,,0.00,VWS V14.01,2013-05-16 09:41:00,
2013-05-16 05:46:00,49.1,42.9,29.63,SSE,149,0.0,0.0,79,0.00,,,0.00,VWS V14.01,2013-05-16 09:46:00,
2013-05-16 05:51:00,48.9,42.7,29.64,SSW,207,3.0,6.0,79,0.00,,,0.00,VWS V14.01,2013-05-16 09:51:00,
2013-05-16 05:56:00,49.4,43.2,29.64,SSW,207,0.0,1.0,79,0.00,,,0.00,VWS V14.01,2013-05-16 09:56:00,
2013-05-16 06:01:00,49.4,42.5,29.64,SSW,204,0.0,5.0,77,0.00,,,0.00,VWS V14.01,2013-05-16 10:01:00,
2013-05-16 06:06:00,49.9,43.0,29.64,SW,215,3.0,4.0,77,0.00,,,0.00,VWS V14.01,2013-05-16 10:06:00,
2013-05-16 06:11:00,50.5,42.9,29.64,SW,226,0.0,4.0,75,0.00,,,0.00,VWS V14.01,2013-05-16 10:11:00,
2013-05-16 06:16:00,50.4,42.8,29.64,SW,217,0.0,7.0,75,0.00,,,0.00,VWS V14.01,2013-05-16 10:16:00,
2013-05-16 06:21:00,50.5,42.5,29.64,WNW,286,0.0,7.0,74,0.00,,,0.00,VWS V14.01,2013-05-16 10:21:00,
2013-05-16 06:26:00,50.8,42.5,29.64,South,174,6.0,8.0,73,0.00,,,0.00,VWS V14.01,2013-05-16 10:26:00,
2013-05-16 06:31:00,51.1,43.1,29.65,South,169,0.0,8.0,74,0.00,,,0.00,VWS V14.01,2013-05-16 10:31:00,
2013-05-16 06:36:00,51.0,42.7,29.65,South,169,0.0,1.0,73,0.00,,,0.00,VWS V14.01,2013-05-16 10:36:00,
2013-05-16 06:41:00,50.7,43.1,29.65,South,173,0.0,2.0,75,0.00,,,0.00,VWS V14.01,2013-05-16 10:41:00,
2013-05-16 06:46:00,50.8,42.8,29.65,South,183,2.0,2.0,74,0.00,,,0.00,VWS V14.01,2013-05-16 10:46:00,
2013-05-16 06:51:00,51.0,43.0,29.65,WSW,245,2.0,4.0,74,0.00,,,0.00,VWS V14.01,2013-05-16 10:51:00,
2013-05-16 06:56:00,51.6,42.5,29.65,SW,219,0.0,0.0,71,0.00,,,0.00,VWS V14.01,2013-05-16 10:56:00,
2013-05-16 07:01:00,51.9,43.2,29.65,SSW,200,0.0,3.0,72,0.00,,,0.00,VWS V14.01,2013-05-16 11:01:00,
2013-05-16 07:06:00,52.2,42.7,29.65,SW,234,0.0,0.0,70,0.00,,,0.00,VWS V14.01,2013-05-16 11:06:00,
2013-05-16 07:12:00,52.5,43.0,29.65,South,175,0.0,0.0,70,0.00,,,0.00,VWS V14.01,2013-05-16 11:12:00,
2013-05-16 07:17:00,52.9,42.3,29.65,WSW,246,0.0,2.0,67,0.00,,,0.00,VWS V14.01,2013-05-16 11:17:00,
2013-05-16 07:22:00,53.4,42.7,29.65,SSW,200,0.0,4.0,67,0.00,,,0.00,VWS V14.01,2013-05-16 11:22:00,
2013-05-16 07:27:00,53.7,42.6,29.65,SSW,206,0.0,1.0,66,0.00,,,0.00,VWS V14.01,2013-05-16 11:27:00,
2013-05-16 07:32:00,54.0,42.9,29.65,SSW,202,0.0,1.0,66,0.00,,,0.00,VWS V14.01,2013-05-16 11:32:00,
2013-05-16 07:37:00,54.2,42.7,29.65,South,182,1.0,1.0,65,0.00,,,0.00,VWS V14.01,2013-05-16 11:37:00,
2013-05-16 07:42:00,54.4,42.9,29.65,SE,134,1.0,4.0,65,0.00,,,0.00,VWS V14.01,2013-05-16 11:42:00,
2013-05-16 07:47:00,54.5,43.4,29.65,WSW,240,0.0,2.0,66,0.00,,,0.00,VWS V14.01,2013-05-16 11:47:00,
2013-05-16 07:52:00,54.8,42.9,29.65,NW,315,0.0,3.0,64,0.00,,,0.00,VWS V14.01,2013-05-16 11:52:00,
2013-05-16 07:57:00,55.2,44.0,29.65,SE,124,0.0,1.0,66,0.00,,,0.00,VWS V14.01,2013-05-16 11:57:00,
2013-05-16 08:02:00,55.4,43.4,29.65,SW,232,2.0,2.0,64,0.00,,,0.00,VWS V14.01,2013-05-16 12:02:00,
2013-05-16 08:07:00,56.0,42.8,29.65,WNW,295,0.0,2.0,61,0.00,,,0.00,VWS V14.01,2013-05-16 12:07:00,
2013-05-16 08:12:00,56.6,42.9,29.65,SSW,209,0.0,4.0,60,0.00,,,0.00,VWS V14.01,2013-05-16 12:12:00,
2013-05-16 08:17:00,56.9,42.3,29.66,SW,214,0.0,1.0,58,0.00,,,0.00,VWS V14.01,2013-05-16 12:17:00,
2013-05-16 08:22:00,57.3,41.8,29.66,NW,307,0.0,3.0,56,0.00,,,0.00,VWS V14.01,2013-05-16 12:22:00,
2013-05-16 08:27:00,57.7,41.2,29.65,NNW,329,0.0,4.0,54,0.00,,,0.00,VWS V14.01,2013-05-16 12:27:00,
2013-05-16 08:32:00,57.9,41.8,29.65,SW,219,0.0,4.0,55,0.00,,,0.00,VWS V14.01,2013-05-16 12:32:00,
2013-05-16 08:37:00,57.9,41.8,29.65,SW,219,0.0,1.0,55,0.00,,,0.00,VWS V14.01,2013-05-16 12:37:00,
2013-05-16 08:42:00,58.1,41.6,29.65,WSW,238,0.0,4.0,54,0.00,,,0.00,VWS V14.01,2013-05-16 12:42:00,
2013-05-16 08:47:00,58.5,41.0,29.65,West,279,0.0,3.0,52,0.00,,,0.00,VWS V14.01,2013-05-16 12:47:00,
2013-05-16 08:52:00,59.1,42.0,29.65,WNW,291,4.0,4.0,53,0.00,,,0.00,VWS V14.01,2013-05-16 12:52:00,
2013-05-16 08:57:00,59.4,39.2,29.65,WNW,289,1.0,6.0,47,0.00,,,0.00,VWS V14.01,2013-05-16 12:57:00,
2013-05-16 12:50:00,68.7,34.3,29.62,NW,313,4.0,4.0,28,0.00,,,0.00,VWS V14.01,2013-05-16 16:50:00,
2013-05-16 12:55:00,68.9,35.4,29.62,North,360,5.0,9.0,29,0.00,,,0.00,VWS V14.01,2013-05-16 16:55:00,
2013-05-16 13:00:00,69.2,35.6,29.61,WNW,302,2.0,19.0,29,0.00,,,0.00,VWS V14.01,2013-05-16 17:00:00,
2013-05-16 13:05:00,69.4,34.0,29.61,NW,309,20.0,27.0,27,0.00,,,0.00,VWS V14.01,2013-05-16 17:05:00,
2013-05-16 13:10:00,69.0,34.6,29.61,NW,311,13.0,27.0,28,0.00,,,0.00,VWS V14.01,2013-05-16 17:10:00,
2013-05-16 13:15:00,69.0,34.6,29.61,WNW,292,11.0,13.0,28,0.00,,,0.00,VWS V14.01,2013-05-16 17:15:00,
2013-05-16 13:20:00,70.2,36.5,29.61,WNW,300,3.0,17.0,29,0.00,,,0.00,VWS V14.01,2013-05-16 17:20:00,
2013-05-16 13:25:00,70.3,33.8,29.62,NNW,331,20.0,20.0,26,0.00,,,0.00,VWS V14.01,2013-05-16 17:25:00,
2013-05-16 13:30:00,70.1,34.6,29.61,NW,317,8.0,28.0,27,0.00,,,0.00,VWS V14.01,2013-05-16 17:30:00,
2013-05-16 13:35:00,70.1,34.6,29.61,WNW,298,15.0,17.0,27,0.00,,,0.00,VWS V14.01,2013-05-16 17:35:00,
2013-05-16 13:40:00,70.3,34.8,29.61,NW,304,12.0,20.0,27,0.00,,,0.00,VWS V14.01,2013-05-16 17:40:00,
2013-05-16 13:45:00,69.3,33.9,29.61,WNW,294,10.0,10.0,27,0.00,,,0.00,VWS V14.01,2013-05-16 17:45:00,
2013-05-16 13:50:00,69.5,34.1,29.62,NNW,347,13.0,21.0,27,0.00,,,0.00,VWS V14.01,2013-05-16 17:50:00,
2013-05-16 13:55:00,70.0,33.6,29.62,NW,305,10.0,20.0,26,0.00,,,0.00,VWS V14.01,2013-05-16 17:55:00,
2013-05-16 14:00:00,70.4,33.9,29.61,NNW,329,15.0,20.0,26,0.00,,,0.00,VWS V14.01,2013-05-16 18:00:00,
2013-05-16 14:05:00,70.7,34.2,29.62,North,355,20.0,20.0,26,0.00,,,0.00,VWS V14.01,2013-05-16 18:05:00,
2013-05-16 14:10:00,70.0,32.6,29.60,WNW,284,18.0,27.0,25,0.00,,,0.00,VWS V14.01,2013-05-16 18:10:00,
2013-05-16 14:15:00,70.7,34.2,29.61,West,273,7.0,16.0,26,0.00,,,0.00,VWS V14.01,2013-05-16 18:15:00,
2013-05-16 14:20:00,71.4,33.8,29.61,SW,234,10.0,19.0,25,0.00,,,0.00,VWS V14.01,2013-05-16 18:20:00,
2013-05-16 14:25:00,70.5,33.0,29.61,North,349,14.0,25.0,25,0.00,,,0.00,VWS V14.01,2013-05-16 18:25:00,
2013-05-16 14:30:00,69.9,33.5,29.61,NW,317,19.0,25.0,26,0.00,,,0.00,VWS V14.01,2013-05-16 18:30:00,
2013-05-16 14:35:00,70.2,33.7,29.61,WNW,284,9.0,10.0,26,0.00,,,0.00,VWS V14.01,2013-05-16 18:35:00,
2013-05-16 14:40:00,70.9,33.4,29.61,West,271,4.0,17.0,25,0.00,,,0.00,VWS V14.01,2013-05-16 18:40:00,
2013-05-16 14:45:00,70.1,33.7,29.61,NW,306,9.0,12.0,26,0.00,,,0.00,VWS V14.01,2013-05-16 18:45:00,
2013-05-16 14:50:00,70.6,34.1,29.61,West,277,8.0,18.0,26,0.00,,,0.00,VWS V14.01,2013-05-16 18:50:00,
2013-05-16 14:55:00,71.1,33.5,29.62,WNW,294,20.0,21.0,25,0.00,,,0.00,VWS V14.01,2013-05-16 18:55:00,
2013-05-16 15:00:00,69.3,33.0,29.62,West,279,13.0,27.0,26,0.00,,,0.00,VWS V14.01,2013-05-16 19:00:00,
2013-05-16 15:05:00,68.8,32.5,29.62,NNW,344,11.0,25.0,26,0.00,,,0.00,VWS V14.01,2013-05-16 19:05:00,
2013-05-16 15:10:00,69.0,32.7,29.62,NNW,334,8.0,25.0,26,0.00,,,0.00,VWS V14.01,2013-05-16 19:10:00,
2013-05-16 15:15:00,69.0,32.7,29.62,West,267,0.0,7.0,26,0.00,,,0.00,VWS V14.01,2013-05-16 19:15:00,
2013-05-16 15:20:00,70.1,34.6,29.62,NNW,329,7.0,12.0,27,0.00,,,0.00,VWS V14.01,2013-05-16 19:20:00,
2013-05-16 15:25:00,69.2,35.6,29.63,NW,307,10.0,11.0,29,0.00,,,0.00,VWS V14.01,2013-05-16 19:25:00,
2013-05-16 15:30:00,68.0,35.4,29.63,North,5,23.0,25.0,30,0.00,,,0.00,VWS V14.01,2013-05-16 19:30:00,
2013-05-16 15:35:00,67.3,34.8,29.64,NW,323,8.0,11.0,30,0.00,,,0.00,VWS V14.01,2013-05-16 19:35:00,
2013-05-16 15:40:00,67.2,34.8,29.64,North,355,5.0,16.0,30,0.00,,,0.00,VWS V14.01,2013-05-16 19:40:00,
2013-05-16 15:45:00,67.1,35.5,29.64,NNW,339,2.0,6.0,31,0.00,,,0.00,VWS V14.01,2013-05-16 19:45:00,
2013-05-16 15:50:00,66.8,35.2,29.64,NW,326,8.0,15.0,31,0.00,,,0.00,VWS V14.01,2013-05-16 19:50:00,
2013-05-16 15:55:00,66.3,35.6,29.65,NNW,344,2.0,5.0,32,0.00,,,0.00,VWS V14.01,2013-05-16 19:55:00,
2013-05-16 16:00:00,66.1,36.2,29.65,NNW,340,10.0,13.0,33,0.00,,,0.00,VWS V14.01,2013-05-16 20:00:00,
2013-05-16 16:05:00,66.0,36.8,29.65,North,350,0.0,4.0,34,0.00,,,0.00,VWS V14.01,2013-05-16 20:05:00,
2013-05-16 16:10:00,65.7,35.8,29.65,WNW,298,10.0,14.0,33,0.00,,,0.00,VWS V14.01,2013-05-16 20:10:00,
2013-05-16 16:15:00,65.3,35.5,29.65,NNW,344,4.0,9.0,33,0.00,,,0.00,VWS V14.01,2013-05-16 20:15:00,
2013-05-16 16:20:00,65.2,36.2,29.65,North,355,1.0,12.0,34,0.00,,,0.00,VWS V14.01,2013-05-16 20:20:00,
2013-05-16 16:25:00,65.1,36.8,29.66,NNW,344,0.0,1.0,35,0.00,,,0.00,VWS V14.01,2013-05-16 20:25:00,
2013-05-16 16:30:00,64.7,39.2,29.66,NNW,348,7.0,11.0,39,0.00,,,0.00,VWS V14.01,2013-05-16 20:30:00,
2013-05-16 16:35:00,64.0,39.8,29.67,NW,325,0.0,8.0,41,0.00,,,0.00,VWS V14.01,2013-05-16 20:35:00,
2013-05-16 16:40:00,63.8,40.3,29.67,North,355,0.0,14.0,42,0.00,,,0.00,VWS V14.01,2013-05-16 20:40:00,
2013-05-16 16:45:00,63.3,41.0,29.67,NNE,24,0.0,0.0,44,0.00,,,0.00,VWS V14.01,2013-05-16 20:45:00,
2013-05-16 16:50:00,63.1,40.9,29.67,ENE,67,1.0,8.0,44,0.00,,,0.00,VWS V14.01,2013-05-16 20:50:00,
2013-05-16 16:55:00,62.7,41.1,29.67,NNW,327,1.0,1.0,45,0.00,,,0.00,VWS V14.01,2013-05-16 20:55:00,
2013-05-16 17:00:00,62.8,41.2,29.67,NNW,340,6.0,9.0,45,0.00,,,0.00,VWS V14.01,2013-05-16 21:00:00,
2013-05-16 17:05:00,63.0,42.5,29.68,North,360,8.0,10.0,47,0.00,,,0.00,VWS V14.01,2013-05-16 21:05:00,
2013-05-16 17:10:00,62.5,41.5,29.68,North,5,5.0,10.0,46,0.00,,,0.00,VWS V14.01,2013-05-16 21:10:00,
2013-05-16 17:15:00,62.2,41.7,29.68,NNW,337,5.0,5.0,47,0.00,,,0.00,VWS V14.01,2013-05-16 21:15:00,
2013-05-16 17:20:00,61.6,42.3,29.68,NNW,346,2.0,14.0,49,0.00,,,0.00,VWS V14.01,2013-05-16 21:20:00,
2013-05-16 17:25:00,61.5,43.2,29.68,NNW,329,5.0,5.0,51,0.00,,,0.00,VWS V14.01,2013-05-16 21:25:00,
2013-05-16 17:30:00,61.3,44.0,29.69,North,355,0.0,7.0,53,0.00,,,0.00,VWS V14.01,2013-05-16 21:30:00,
2013-05-16 17:35:00,60.1,43.4,29.69,NNE,26,4.0,6.0,54,0.00,,,0.00,VWS V14.01,2013-05-16 21:35:00,
2013-05-16 17:40:00,59.1,43.0,29.70,ENE,58,0.0,8.0,55,0.00,,,0.00,VWS V14.01,2013-05-16 21:40:00,
2013-05-16 17:45:00,58.4,43.2,29.70,ENE,73,0.0,1.0,57,0.00,,,0.00,VWS V14.01,2013-05-16 21:45:00,
2013-05-16 17:50:00,58.0,43.3,29.71,ENE,59,2.0,8.0,58,0.00,,,0.00,VWS V14.01,2013-05-16 21:50:00,
2013-05-16 17:55:00,57.6,43.0,29.71,NE,39,0.0,2.0,58,0.00,,,0.00,VWS V14.01,2013-05-16 21:55:00,
2013-05-16 18:00:00,57.1,42.9,29.71,East,93,0.0,8.0,59,0.00,,,0.00,VWS V14.01,2013-05-16 22:00:00,
2013-05-16 18:05:00,56.6,42.9,29.72,WNW,292,4.0,4.0,60,0.00,,,0.00,VWS V14.01,2013-05-16 22:05:00,
2013-05-16 18:10:00,56.0,42.8,29.73,North,355,0.0,4.0,61,0.00,,,0.00,VWS V14.01,2013-05-16 22:10:00,
2013-05-16 18:15:00,55.8,43.0,29.73,ENE,78,0.0,1.0,62,0.00,,,0.00,VWS V14.01,2013-05-16 22:15:00,
2013-05-16 18:20:00,55.5,42.7,29.74,NNW,336,1.0,6.0,62,0.00,,,0.00,VWS V14.01,2013-05-16 22:20:00,
2013-05-16 18:25:00,55.3,42.9,29.74,NNE,23,0.0,0.0,63,0.00,,,0.00,VWS V14.01,2013-05-16 22:25:00,
2013-05-16 18:30:00,55.1,42.3,29.74,North,360,0.0,5.0,62,0.00,,,0.00,VWS V14.01,2013-05-16 22:30:00,
2013-05-16 18:35:00,55.1,42.8,29.74,NNW,330,4.0,5.0,63,0.00,,,0.00,VWS V14.01,2013-05-16 22:35:00,
2013-05-16 18:40:00,54.8,42.0,29.74,NW,323,5.0,12.0,62,0.00,,,0.00,VWS V14.01,2013-05-16 22:40:00,
2013-05-16 18:45:00,54.5,42.2,29.74,NNW,346,3.0,6.0,63,0.00,,,0.00,VWS V14.01,2013-05-16 22:45:00,
2013-05-16 18:50:00,54.5,43.0,29.75,NNE,13,4.0,7.0,65,0.00,,,0.00,VWS V14.01,2013-05-16 22:50:00,
2013-05-16 18:55:00,54.4,42.5,29.75,North,5,1.0,4.0,64,0.00,,,0.00,VWS V14.01,2013-05-16 22:55:00,
2013-05-16 19:00:00,54.3,42.8,29.75,NNE,25,0.0,4.0,65,0.00,,,0.00,VWS V14.01,2013-05-16 23:00:00,
2013-05-16 19:05:00,54.1,42.2,29.76,ENE,76,8.0,11.0,64,0.00,,,0.00,VWS V14.01,2013-05-16 23:05:00,
2013-05-16 19:10:00,53.9,42.0,29.76,North,355,4.0,13.0,64,0.00,,,0.00,VWS V14.01,2013-05-16 23:10:00,
2013-05-16 19:15:00,53.7,42.2,29.76,NNW,347,1.0,5.0,65,0.00,,,0.00,VWS V14.01,2013-05-16 23:15:00,
2013-05-16 19:20:00,53.6,42.1,29.76,North,355,0.0,6.0,65,0.00,,,0.00,VWS V14.01,2013-05-16 23:20:00,
2013-05-16 19:25:00,53.4,42.3,29.76,NNW,346,1.0,3.0,66,0.00,,,0.00,VWS V14.01,2013-05-16 23:25:00,
2013-05-16 19:30:00,53.2,42.2,29.77,North,355,0.0,10.0,66,0.00,,,0.00,VWS V14.01,2013-05-16 23:30:00,
2013-05-16 19:35:00,53.0,42.0,29.77,NNW,341,4.0,4.0,66,0.00,,,0.00,VWS V14.01,2013-05-16 23:35:00,
2013-05-16 19:40:00,52.8,41.8,29.77,NNW,337,7.0,9.0,66,0.00,,,0.00,VWS V14.01,2013-05-16 23:40:00,
2013-05-16 19:45:00,52.8,42.2,29.78,NNE,13,0.0,0.0,67,0.00,,,0.00,VWS V14.01,2013-05-16 23:45:00,
2013-05-16 19:50:00,52.7,42.1,29.78,NNW,336,8.0,10.0,67,0.00,,,0.00,VWS V14.01,2013-05-16 23:50:00,
2013-05-16 19:55:00,52.6,42.0,29.78,NNW,344,0.0,1.0,67,0.00,,,0.00,VWS V14.01,2013-05-16 23:55:00,
2013-05-16 20:00:00,52.4,41.8,29.78,North,349,2.0,11.0,67,0.00,,,0.00,VWS V14.01,2013-05-17 00:00:00,
2013-05-16 20:05:00,52.3,41.7,29.79,NNW,344,4.0,5.0,67,0.00,,,0.00,VWS V14.01,2013-05-17 00:05:00,
2013-05-16 20:10:00,52.3,41.3,29.79,NE,51,0.0,10.0,66,0.00,,,0.00,VWS V14.01,2013-05-17 00:10:00,
2013-05-16 20:15:00,52.3,41.3,29.79,NNW,336,3.0,3.0,66,0.00,,,0.00,VWS V14.01,2013-05-17 00:15:00,
2013-05-16 20:20:00,52.2,41.6,29.79,North,355,0.0,4.0,67,0.00,,,0.00,VWS V14.01,2013-05-17 00:20:00,
2013-05-16 20:25:00,52.1,41.1,29.80,North,351,2.0,3.0,66,0.00,,,0.00,VWS V14.01,2013-05-17 00:25:00,
2013-05-16 20:30:00,52.1,40.7,29.80,East,92,1.0,6.0,65,0.00,,,0.00,VWS V14.01,2013-05-17 00:30:00,
2013-05-16 20:35:00,52.1,40.7,29.80,NNW,340,0.0,0.0,65,0.00,,,0.00,VWS V14.01,2013-05-17 00:35:00,
2013-05-16 20:40:00,52.0,40.6,29.80,NNW,344,4.0,10.0,65,0.00,,,0.00,VWS V14.01,2013-05-17 00:40:00,
2013-05-16 20:45:00,52.0,40.2,29.81,NNW,344,0.0,0.0,64,0.00,,,0.00,VWS V14.01,2013-05-17 00:45:00,
2013-05-16 20:50:00,51.9,40.1,29.81,North,10,0.0,6.0,64,0.00,,,0.00,VWS V14.01,2013-05-17 00:50:00,
2013-05-16 20:55:00,51.9,39.7,29.82,NNW,329,0.0,0.0,63,0.00,,,0.00,VWS V14.01,2013-05-17 00:55:00,
2013-05-16 21:00:00,51.9,39.7,29.82,NW,306,4.0,7.0,63,0.00,,,0.00,VWS V14.01,2013-05-17 01:00:00,
2013-05-16 21:05:00,51.8,39.6,29.82,NNW,347,0.0,0.0,63,0.00,,,0.00,VWS V14.01,2013-05-17 01:05:00,
2013-05-16 21:10:00,51.7,39.5,29.83,NNW,340,1.0,4.0,63,0.00,,,0.00,VWS V14.01,2013-05-17 01:10:00,
2013-05-16 21:15:00,51.7,39.5,29.83,NNE,12,0.0,0.0,63,0.00,,,0.00,VWS V14.01,2013-05-17 01:15:00,
2013-05-16 21:20:00,51.7,39.1,29.83,NNE,31,1.0,10.0,62,0.00,,,0.00,VWS V14.01,2013-05-17 01:20:00,
2013-05-16 21:25:00,51.7,39.5,29.83,NNW,328,0.0,0.0,63,0.00,,,0.00,VWS V14.01,2013-05-17 01:25:00,
2013-05-16 21:30:00,51.5,39.3,29.83,NNW,346,1.0,5.0,63,0.00,,,0.00,VWS V14.01,2013-05-17 01:30:00,
2013-05-16 21:35:00,51.5,39.3,29.84,NNW,341,5.0,6.0,63,0.00,,,0.00,VWS V14.01,2013-05-17 01:35:00,
2013-05-16 21:40:00,51.5,38.9,29.84,NNW,344,9.0,13.0,62,0.00,,,0.00,VWS V14.01,2013-05-17 01:40:00,
2013-05-16 21:45:00,51.5,39.3,29.84,NNW,341,5.0,8.0,63,0.00,,,0.00,VWS V14.01,2013-05-17 01:45:00,
2013-05-16 21:50:00,51.4,39.2,29.84,NNW,344,0.0,8.0,63,0.00,,,0.00,VWS V14.01,2013-05-17 01:50:00,
2013-05-16 21:55:00,51.3,39.5,29.84,NNW,344,0.0,0.0,64,0.00,,,0.00,VWS V14.01,2013-05-17 01:55:00,
2013-05-16 22:00:00,51.0,39.7,29.84,NNE,13,1.0,8.0,65,0.00,,,0.00,VWS V14.01,2013-05-17 02:00:00,
2013-05-16 22:05:00,50.9,39.2,29.84,NNW,343,0.0,3.0,64,0.00,,,0.00,VWS V14.01,2013-05-17 02:05:00,
2013-05-16 22:10:00,50.9,39.2,29.85,NNW,344,4.0,11.0,64,0.00,,,0.00,VWS V14.01,2013-05-17 02:10:00,
2013-05-16 22:15:00,50.9,39.2,29.85,NNW,329,5.0,5.0,64,0.00,,,0.00,VWS V14.01,2013-05-17 02:15:00,
2013-05-16 22:20:00,50.8,39.5,29.85,North,350,0.0,7.0,65,0.00,,,0.00,VWS V14.01,2013-05-17 02:20:00,
2013-05-16 22:25:00,50.7,39.4,29.85,NNW,338,3.0,5.0,65,0.00,,,0.00,VWS V14.01,2013-05-17 02:25:00,
2013-05-16 22:30:00,50.6,39.3,29.85,North,350,4.0,7.0,65,0.00,,,0.00,VWS V14.01,2013-05-17 02:30:00,
2013-05-16 22:35:00,50.6,39.3,29.85,North,351,4.0,4.0,65,0.00,,,0.00,VWS V14.01,2013-05-17 02:35:00,
2013-05-16 22:40:00,50.5,39.6,29.85,NNW,333,0.0,7.0,66,0.00,,,0.00,VWS V14.01,2013-05-17 02:40:00,
2013-05-16 22:45:00,50.4,39.5,29.85,NNW,336,5.0,8.0,66,0.00,,,0.00,VWS V14.01,2013-05-17 02:45:00,
2013-05-16 22:50:00,50.2,39.7,29.85,NNW,331,6.0,11.0,67,0.00,,,0.00,VWS V14.01,2013-05-17 02:50:00,
2013-05-16 22:55:00,50.0,39.9,29.85,NNW,348,4.0,4.0,68,0.00,,,0.00,VWS V14.01,2013-05-17 02:55:00,
2013-05-16 23:00:00,49.7,39.6,29.85,NNW,337,0.0,12.0,68,0.00,,,0.00,VWS V14.01,2013-05-17 03:00:00,
2013-05-16 23:05:00,49.5,40.1,29.85,NNW,345,9.0,9.0,70,0.00,,,0.00,VWS V14.01,2013-05-17 03:05:00,
2013-05-16 23:10:00,49.2,39.8,29.85,WNW,302,10.0,10.0,70,0.00,,,0.00,VWS V14.01,2013-05-17 03:10:00,
2013-05-16 23:15:00,49.1,40.1,29.85,NNW,336,0.0,2.0,71,0.00,,,0.00,VWS V14.01,2013-05-17 03:15:00,
2013-05-16 23:20:00,48.8,40.2,29.86,NNW,344,0.0,3.0,72,0.00,,,0.00,VWS V14.01,2013-05-17 03:20:00,
2013-05-16 23:25:00,48.6,40.0,29.86,NNE,26,3.0,3.0,72,0.00,,,0.00,VWS V14.01,2013-05-17 03:25:00,
2013-05-16 23:30:00,48.4,39.8,29.86,North,355,0.0,9.0,72,0.00,,,0.00,VWS V14.01,2013-05-17 03:30:00,
2013-05-16 23:35:00,48.2,39.6,29.87,North,360,0.0,0.0,72,0.00,,,0.00,VWS V14.01,2013-05-17 03:35:00,
2013-05-16 23:40:00,48.1,39.9,29.87,WNW,301,5.0,13.0,73,0.00,,,0.00,VWS V14.01,2013-05-17 03:40:00,
2013-05-16 23:45:00,48.0,39.8,29.87,North,355,3.0,3.0,73,0.00,,,0.00,VWS V14.01,2013-05-17 03:45:00,
2013-05-16 23:50:00,47.8,39.6,29.87,North,355,3.0,8.0,73,0.00,,,0.00,VWS V14.01,2013-05-17 03:50:00,
2013-05-16 23:55:00,47.6,39.7,29.87,North,355,14.0,14.0,74,0.00,,,0.00,VWS V14.01,2013-05-17 03:55:00,